Louisville Bowman, KY

11:42 PM EST on November 18, 2019 (GMT -0500)
Bowman

Weather History for KLOU - May, 2019

Change the Weather History Date:

Friday, May 24, 2019

  Actual Average Record
Temperature  
Mean Temperature 80 °F 69 °F  
Max Temperature 90 °F 79 °F 91 °F (1953)
Min Temperature 70 °F 59 °F 41 °F (1961)
Degree Days  
Heating Degree Days 0 1  
Month to date heating degree days 47 67  
Since 1 July heating degree days 4101 4258  
Cooling Degree Days 15 5  
Month to date cooling degree days 102 73  
Year to date cooling degree days 119 107  
Growing Degree Days 30 (Base 50)    
Moisture  
Dew Point 66 °F    
Average Humidity 66    
Maximum Humidity 90    
Minimum Humidity 41    
Precipitation  
Precipitation 0.00 in 0.15 in 1.61 in (1955)
Month to date precipitation 2.85 4.08  
Year to date precipitation 26.26 18.88  
Sea Level Pressure  
Sea Level Pressure 30.08 in    
Wind  
Wind Speed 6 mph (SSW)    
Max Wind Speed 17 mph    
Max Gust Speed 26 mph    
Visibility 10 miles    
Events      
T = Trace of Precipitation, MM = Missing Value Source: NWS Daily Summary

Daily Weather History Graph

Daily Weather History Graph

Search for Another Location

Airport or City:

Astronomy

May. 24, 2019 Rise Set
Actual Time 6:25 AM EDT 8:54 PM EDT
Civil Twilight 5:54 AM EDT 9:24 PM EDT
Nautical Twilight 5:17 AM EDT 10:02 PM EDT
Astronomical Twilight 4:35 AM EDT 10:44 PM EDT
Moon 1:18 AM EDT (5/24) 11:25 AM EDT (5/24)
Length of Visible Light 15h 29m
Length of Day
14h 28m
Waning Gibbous, 69% of the Moon is Illuminated
May 24
Waning Gibbous
May 26
Last Quarter
Jun 3
New
Jun 10
First Quarter
Jun 17
Full

Hourly Weather History & Observations

Time (EDT) Temp. Heat Index Dew Point Humidity Pressure Visibility Wind Dir Wind Speed Gust Speed Precip Events Conditions
12:53 AM 73.0 °F - 69.1 °F 87% 30.08 in 10.0 mi South 3.5 mph - N/A   Clear
1:53 AM 73.0 °F - 69.1 °F 87% 30.07 in 10.0 mi South 4.6 mph - N/A   Clear
2:53 AM 73.0 °F - 69.1 °F 87% 30.07 in 10.0 mi SSE 3.5 mph - N/A   Scattered Clouds
3:53 AM 73.0 °F - 69.1 °F 87% 30.06 in 8.0 mi South 3.5 mph - N/A   Clear
4:53 AM 71.1 °F - 68.0 °F 90% 30.07 in 9.0 mi Calm Calm - N/A   Clear
5:53 AM 71.1 °F - 68.0 °F 90% 30.08 in 6.0 mi Calm Calm - N/A   Clear
6:53 AM 70.0 °F - 66.9 °F 90% 30.10 in 7.0 mi Calm Calm - N/A   Scattered Clouds
7:53 AM 73.9 °F - 69.1 °F 85% 30.12 in 10.0 mi Calm Calm - N/A   Mostly Cloudy
8:53 AM 77.0 °F - 69.1 °F 76% 30.12 in 10.0 mi Calm Calm - N/A   Clear
9:53 AM 81.0 °F 84.9 °F 71.1 °F 72% 30.13 in 10.0 mi SW 4.6 mph - N/A   Clear
10:53 AM 84.0 °F 87.8 °F 69.1 °F 61% 30.12 in 10.0 mi WSW 6.9 mph - N/A   Clear
11:53 AM 86.0 °F 88.2 °F 66.0 °F 51% 30.12 in 10.0 mi West 11.5 mph 20.7 mph N/A   Partly Cloudy
12:53 PM 87.1 °F 88.9 °F 64.9 °F 48% 30.11 in 10.0 mi West 12.7 mph - N/A   Partly Cloudy
1:53 PM 89.1 °F 91.0 °F 64.9 °F 45% 30.10 in 10.0 mi WSW 6.9 mph 17.3 mph N/A   Clear
2:53 PM 86.0 °F 87.3 °F 64.0 °F 48% 30.09 in 10.0 mi SW 9.2 mph - N/A   Mostly Cloudy
3:53 PM 89.1 °F 90.3 °F 64.0 °F 43% 30.09 in 10.0 mi SW 12.7 mph 20.7 mph N/A   Scattered Clouds
4:53 PM 89.1 °F 90.0 °F 63.0 °F 42% 30.08 in 10.0 mi SW 11.5 mph - N/A   Partly Cloudy
5:53 PM 89.1 °F 90.0 °F 63.0 °F 42% 30.07 in 10.0 mi SSW 10.4 mph - N/A   Scattered Clouds
6:53 PM 87.1 °F 88.3 °F 64.0 °F 46% 30.06 in 10.0 mi SW 5.8 mph - N/A   Clear
7:53 PM 86.0 °F 86.8 °F 63.0 °F 46% 30.03 in 10.0 mi SW 6.9 mph - N/A   Clear
8:53 PM 82.0 °F 83.0 °F 62.1 °F 51% 30.01 in 10.0 mi South 6.9 mph - N/A   Clear
9:53 PM 80.1 °F 81.5 °F 63.0 °F 56% 30.01 in 10.0 mi South 5.8 mph - N/A   Clear
10:53 PM 78.1 °F - 63.0 °F 60% 30.01 in 10.0 mi South 4.6 mph - N/A   Clear
11:53 PM 75.9 °F - 63.0 °F 64% 30.02 in 10.0 mi South 5.8 mph - N/A   Clear